This is the latest recevied weather packets stored in our database for station/object DK4DO-10. If no packets are shown the sender has not sent any weather packets the latest 10 day(s).
| Time | Temp. | Humidity | Pressure | Rain* | Wind** | Luminosity | Snow |
|---|---|---|---|---|---|---|---|
| 1777830789 | 17.78° C | 43% | 1005.8 hPa | - | - | - | - |
| 1777830188 | 18.33° C | 42% | 1005.7 hPa | - | - | - | - |
| 1777829588 | 18.33° C | 41% | 1005.8 hPa | - | - | - | - |
| 1777828988 | 18.33° C | 42% | 1005.7 hPa | - | - | - | - |
| 1777828388 | 18.33° C | 41% | 1005.7 hPa | - | - | - | - |
| 1777827787 | 18.33° C | 41% | 1005.7 hPa | - | - | - | - |
| 1777827187 | 18.33° C | 40% | 1005.7 hPa | - | - | - | - |
| 1777826587 | 18.89° C | 38% | 1005.7 hPa | - | - | - | - |
| 1777825990 | 18.89° C | 38% | 1005.7 hPa | - | - | - | - |
| 1777825390 | 18.89° C | 38% | 1005.7 hPa | - | - | - | - |
| 1777824786 | 18.33° C | 38% | 1005.7 hPa | - | - | - | - |
| 1777824186 | 18.89° C | 36% | 1005.7 hPa | - | - | - | - |
| 1777823586 | 19.44° C | 35% | 1005.7 hPa | - | - | - | - |
| 1777822986 | 19.44° C | 34% | 1005.4 hPa | - | - | - | - |
| 1777822385 | 20° C | 34% | 1005.5 hPa | - | - | - | - |
| 1777821785 | 20.56° C | 33% | 1005.3 hPa | - | - | - | - |
| 1777821185 | 20.56° C | 34% | 1005.4 hPa | - | - | - | - |
| 1777820585 | 20° C | 33% | 1005.4 hPa | - | - | - | - |
| 1777819984 | 20° C | 33% | 1005.4 hPa | - | - | - | - |
| 1777819384 | 20.56° C | 32% | 1005.4 hPa | - | - | - | - |
| 1777818784 | 20.56° C | 31% | 1005.4 hPa | - | - | - | - |
| 1777818184 | 20.56° C | 29% | 1005.3 hPa | - | - | - | - |
| 1777817583 | 20.56° C | 28% | 1005.3 hPa | - | - | - | - |
| 1777816983 | 21.11° C | 28% | 1005.3 hPa | - | - | - | - |
| 1777816383 | 21.67° C | 26% | 1005.3 hPa | - | - | - | - |
* Rain since midnight (hover to see other rain measurements)
** Current wind speed in m/s (hover to see current wind gust speed)